Tracking 31027 objects as of 19-Jul-2025
HD Live streaming from Space Station
objects crossing your sky now

CHINASAT 1E

Track CHINASAT 1E now!


NORAD ID: 53813
Int'l Code: 2022-112A
Perigee: 35,790.1 km
Apogee: 35,798.3 km
Inclination: 0.0 °
Period: 1,436.1 minutes
Semi major axis: 42165 km
RCS: Unknown
Launch date: September 13, 2022
Source: People's Republic of China (PRC)
Launch site: Wenchang Satellite Launch Center (WSC)
Your satellite tracking list
STARLINK-30236
Track 1 satellite(s)




NASA's NSSDC Master Catalog

Two Line Element Set (TLE):
1 53813U 22112A   25199.82386639 -.00000143  00000-0  00000+0 0  9997
2 53813   0.0310 139.4877 0000972  89.1972  86.1889  1.00270122 10498
Source of the keplerian elements: AFSPC